Millington, TN

4:10 AM CST on November 23, 2017 (GMT -0600)
Millington Municipal

Weather History for KNQA - December, 2012

Change the Weather History Date:

Saturday, December 22, 2012

  Actual Average Record
Temperature  
Mean Temperature 42 °F -  
Max Temperature 60 °F 48 °F 69 °F (2015)
Min Temperature 23 °F 30 °F 12 °F (2008)
Degree Days  
Heating Degree Days 24    
Moisture  
Dew Point 25 °F    
Average Humidity 61    
Maximum Humidity 93    
Minimum Humidity 25    
Precipitation  
Precipitation 0.00 in - - ()
Sea Level Pressure  
Sea Level Pressure 30.25 in    
Wind  
Wind Speed 2 mph (SSE)    
Max Wind Speed 10 mph    
Max Gust Speed -    
Visibility 10 miles    
Events      
Averages and records for this station are not official NWS values.
T = Trace of Precipitation, MM = Missing Value Source: NWS Daily Summary

Daily Weather History Graph

Daily Weather History Graph

Search for Another Location

Airport or City:

Trip Planner

Search our weather history database for the weather conditions in past years. The results will help you decide how hot, cold, wet, or windy it might be!

Date:

Astronomy

Dec. 22, 2012 Rise Set
Actual Time 7:05 AM CST 4:51 PM CST
Civil Twilight 6:36 AM CST 5:19 PM CST
Nautical Twilight 6:05 AM CST 5:51 PM CST
Astronomical Twilight 5:34 AM CST 6:22 PM CST
Moon 1:03 PM CST (12/22) 1:57 AM CST (12/22)
Length of Visible Light 10h 42m
Length of Day
9h 46m
Waxing Gibbous, 74% of the Moon is Illuminated
Dec 22
Waxing Gibbous
Dec 28
Full
Jan 4
Last Quarter
Jan 11
New
Jan 18
First Quarter

Hourly Weather History & Observations

Time (CST) Temp. Windchill Dew Point Humidity Pressure Visibility Wind Dir Wind Speed Gust Speed Precip Events Conditions
12:55 AM 26.6 °F - 21.2 °F 80% 30.33 in 10.0 mi Calm Calm - N/A   Clear
1:15 AM 24.8 °F - 21.2 °F 86% 30.33 in 10.0 mi Calm Calm - N/A   Clear
1:35 AM 26.6 °F - 21.2 °F 80% 30.33 in 10.0 mi Calm Calm - N/A   Clear
1:55 AM 26.6 °F - 21.2 °F 80% 30.33 in 10.0 mi Calm Calm - N/A   Clear
2:15 AM 26.6 °F - 21.2 °F 80% 30.33 in 10.0 mi Calm Calm - N/A   Clear
2:35 AM 26.6 °F - 21.2 °F 80% 30.33 in 10.0 mi Calm Calm - N/A   Clear
2:55 AM 26.6 °F - 21.2 °F 80% 30.34 in 10.0 mi Calm Calm - N/A   Clear
3:55 AM 24.8 °F - 21.2 °F 86% 30.33 in 10.0 mi Calm Calm - N/A   Clear
4:55 AM 24.8 °F - 23.0 °F 93% 30.31 in 10.0 mi Calm Calm - N/A   Clear
5:55 AM 23.0 °F - 21.2 °F 93% 30.33 in 10.0 mi Calm Calm - N/A   Partly Cloudy
6:55 AM 24.8 °F - 21.2 °F 86% 30.35 in 10.0 mi Calm Calm - N/A   Partly Cloudy
7:55 AM 26.6 °F - 23.0 °F 86% 30.34 in 10.0 mi Calm Calm - N/A   Partly Cloudy
8:55 AM 33.8 °F 29.6 °F 26.6 °F 75% 30.34 in 10.0 mi ESE 4.6 mph - N/A   Clear
9:55 AM 41.0 °F 36.4 °F 23.0 °F 49% 30.32 in 10.0 mi ESE 6.9 mph - N/A   Clear
10:55 AM 46.4 °F 42.4 °F 19.4 °F 34% 30.29 in 10.0 mi SE 8.1 mph - N/A   Clear
11:55 AM 51.8 °F - 24.8 °F 35% 30.26 in 10.0 mi Variable 4.6 mph - N/A   Clear
12:55 PM 55.4 °F - 24.8 °F 31% 30.23 in 10.0 mi SSE 6.9 mph - N/A   Clear
1:55 PM 60.8 °F - 24.8 °F 25% 30.20 in 10.0 mi SW 8.1 mph - N/A   Clear
2:55 PM 60.8 °F - 26.6 °F 27% 30.18 in 10.0 mi SW 10.4 mph - N/A   Clear
3:55 PM 57.2 °F - 28.4 °F 33% 30.17 in 10.0 mi SSW 3.5 mph - N/A   Clear
4:55 PM 53.6 °F - 28.4 °F 38% 30.17 in 10.0 mi Variable 3.5 mph - N/A   Scattered Clouds
5:55 PM 50.0 °F - 28.4 °F 43% 30.16 in 10.0 mi SSE 4.6 mph - N/A   Scattered Clouds
6:55 PM 50.0 °F - 28.4 °F 43% 30.15 in 10.0 mi SSE 6.9 mph - N/A   Scattered Clouds
7:55 PM 50.0 °F - 30.2 °F 47% 30.15 in 10.0 mi South 6.9 mph - N/A   Clear
8:55 PM 48.2 °F - 32.0 °F 54% 30.14 in 10.0 mi SSE 5.8 mph - N/A   Clear
9:55 PM 48.2 °F - 30.2 °F 50% 30.13 in 10.0 mi SSE 5.8 mph - N/A   Clear
10:55 PM 48.2 °F - 30.2 °F 50% 30.12 in 10.0 mi South 5.8 mph - N/A   Clear
11:55 PM 44.6 °F 43.1 °F 30.2 °F 57% 30.10 in 10.0 mi SSE 3.5 mph - N/A   Clear